Location: Johnson City
(36.3130°N, 82.3540°W)
Time: 12:49:02
(UTC-05:00)

X-37B - Visible Passes

Search period start: 25 January 2021 00:00
Search period end: 04 February 2021 00:00
Orbit: 383 x 391 km, 45.1° (Epoch: 22 January)

Date Brightness Start Highest point End Pass type
(mag) Time Alt. Az. Time Alt. Az. Time Alt. Az.
25 Jan 2.7 18:39:03 10° NW 18:41:12 17° N 18:42:55 12° NE visible
26 Jan 2.5 19:17:30 10° NW 19:19:33 19° N 19:19:33 19° N visible
27 Jan 2.6 18:19:07 10° NW 18:21:20 17° N 18:23:33 10° NE visible
27 Jan 3.3 19:55:31 10° NW 19:56:15 15° NW 19:56:15 15° NW visible
28 Jan 1.9 18:57:17 10° NW 19:00:01 26° NNE 19:00:45 23° NE visible
29 Jan 1.5 19:35:17 10° NW 19:37:38 44° NW 19:37:38 44° NW visible
30 Jan 1.2 18:37:01 10° NW 18:40:01 39° NNE 18:42:23 15° E visible
30 Jan 3.7 20:13:48 10° W 20:14:42 16° W 20:14:42 16° W visible
31 Jan 1.1 19:15:11 10° WNW 19:18:18 58° SSW 19:19:37 30° SSE visible
01 Feb 0.6 18:16:47 10° WNW 18:19:57 70° NNE 18:23:07 10° ESE visible
01 Feb 3.4 19:54:31 10° WSW 19:56:16 14° SW 19:57:08 13° SSW visible
02 Feb 2.7 18:55:18 10° W 18:58:04 27° SW 19:00:50 10° SSE visible
